• In Netherlands
  • List of Countries
  • For 7 days
  • Water Temperature
  • Satellite Maps
  • Weather Map
  • Weather Widgets
  • user-avatar
    Login

    Hourly Weather Lozenec

    Today, 30 March, Thursday

    Time Temperature Precipitation Wind Pressure Humidity
    00:00 +8°C° 0 mm 0 mps 761 mmHg 72%
    01:00 +7°C° 0 mm 0 mps 761 mmHg 74%
    02:00 +7°C° 0 mm 0 mps 760 mmHg 75%
    03:00 +8°C° 0 mm 1 mps 760 mmHg 74%
    04:00 +8°C° 0 mm 1 mps 760 mmHg 74%
    05:00 +8°C° 0 mm 1 mps 760 mmHg 74%
    06:00 +11°C° 0 mm 1 mps 760 mmHg 68%
    07:00 +13°C° 0 mm 1 mps 760 mmHg 62%
    08:00 +15°C° 0 mm 1 mps 760 mmHg 56%
    09:00 +17°C° 0 mm 2 mps 760 mmHg 53%
    10:00 +18°C° 0 mm 2 mps 760 mmHg 50%
    11:00 +20°C° 0 mm 3 mps 760 mmHg 47%
    12:00 +20°C° 0 mm 4 mps 760 mmHg 48%
    13:00 +20°C° 0 mm 5 mps 760 mmHg 49%
    14:00 +20°C° 0 mm 6 mps 760 mmHg 50%
    15:00 +17°C° 0.1 mm 6 mps 761 mmHg 59%
    16:00 +16°C° 0.1 mm 6 mps 761 mmHg 67%
    17:00 +14°C° 0.1 mm 6 mps 761 mmHg 75%
    18:00 +13°C° 0.1 mm 6 mps 762 mmHg 79%
    19:00 +12°C° 0.1 mm 5 mps 762 mmHg 83%
    20:00 +9°C° 0.1 mm 5 mps 763 mmHg 87%
    21:00 +9°C° 0.1 mm 5 mps 763 mmHg 87%
    22:00 +9°C° 0.1 mm 5 mps 764 mmHg 87%
    23:00 +9°C° 0.1 mm 5 mps 764 mmHg 87%

    Tomorrow, 31 March, Friday

    Time Temperature Precipitation Wind Pressure Humidity
    00:00 +9°C° 0 mm 5 mps 764 mmHg 88%
    01:00 +8°C° 0 mm 6 mps 765 mmHg 88%
    02:00 +8°C° 0 mm 7 mps 765 mmHg 89%
    03:00 +8°C° 0 mm 7 mps 765 mmHg 89%
    04:00 +6°C° 0 mm 7 mps 765 mmHg 90%
    05:00 +6°C° 0 mm 8 mps 765 mmHg 91%
    06:00 +6°C° 0 mm 8 mps 766 mmHg 88%
    07:00 +7°C° 0 mm 8 mps 766 mmHg 85%
    08:00 +7°C° 0 mm 9 mps 766 mmHg 82%
    09:00 +8°C° 0 mm 9 mps 767 mmHg 77%
    10:00 +9°C° 0 mm 8 mps 767 mmHg 73%
    11:00 +10°C° 0 mm 8 mps 767 mmHg 68%
    12:00 +10°C° 0 mm 8 mps 767 mmHg 68%
    13:00 +10°C° 0 mm 8 mps 767 mmHg 68%
    14:00 +10°C° 0 mm 8 mps 767 mmHg 68%
    15:00 +9°C° 0 mm 7 mps 767 mmHg 70%
    16:00 +9°C° 0 mm 7 mps 766 mmHg 72%
    17:00 +8°C° 0 mm 7 mps 766 mmHg 74%
    18:00 +7°C° 0 mm 6 mps 766 mmHg 79%
    19:00 +6°C° 0 mm 5 mps 766 mmHg 84%
    20:00 +5°C° 0 mm 5 mps 767 mmHg 88%
    21:00 +5°C° 0 mm 4 mps 767 mmHg 89%
    22:00 +4°C° 0 mm 4 mps 767 mmHg 90%
    23:00 +4°C° 0 mm 3 mps 767 mmHg 91%

    Day after tomorrow, 1 April, Saturday

    Time Temperature Precipitation Wind Pressure Humidity
    00:00 +3°C° 0 mm 3 mps 766 mmHg 91%
    01:00 +3°C° 0 mm 3 mps 766 mmHg 91%
    02:00 +2°C° 0 mm 3 mps 766 mmHg 91%
    03:00 +2°C° 0 mm 3 mps 766 mmHg 91%
    04:00 +3°C° 0 mm 2 mps 765 mmHg 91%
    05:00 +2°C° 0 mm 2 mps 765 mmHg 91%
    06:00 +4°C° 0 mm 2 mps 765 mmHg 85%
    07:00 +4°C° 0 mm 3 mps 765 mmHg 79%
    08:00 +7°C° 0 mm 3 mps 766 mmHg 73%
    09:00 +8°C° 0 mm 3 mps 766 mmHg 67%
    10:00 +9°C° 0 mm 3 mps 766 mmHg 62%
    11:00 +11°C° 0 mm 3 mps 766 mmHg 56%
    12:00 +11°C° 0 mm 3 mps 765 mmHg 56%
    13:00 +12°C° 0 mm 4 mps 765 mmHg 55%
    14:00 +12°C° 0 mm 4 mps 765 mmHg 55%
    15:00 +11°C° 0 mm 4 mps 765 mmHg 59%
    16:00 +11°C° 0 mm 4 mps 764 mmHg 62%
    17:00 +10°C° 0 mm 3 mps 764 mmHg 66%
    18:00 +8°C° 0 mm 3 mps 764 mmHg 73%
    19:00 +5°C° 0 mm 3 mps 765 mmHg 80%
    20:00 +4°C° 0 mm 2 mps 765 mmHg 88%
    21:00 +4°C° 0 mm 2 mps 765 mmHg 88%
    22:00 +4°C° 0 mm 2 mps 765 mmHg 88%
    23:00 +3°C° 0 mm 2 mps 765 mmHg 88%

    2 April, Sunday

    Time Temperature Precipitation Wind Pressure Humidity
    00:00 +3°C° 0 mm 2 mps 765 mmHg 88%
    01:00 +3°C° 0 mm 2 mps 765 mmHg 88%
    02:00 +2°C° 0 mm 2 mps 765 mmHg 88%
    03:00 +2°C° 0 mm 2 mps 765 mmHg 88%
    04:00 +2°C° 0 mm 2 mps 764 mmHg 87%
    05:00 +2°C° 0 mm 2 mps 764 mmHg 87%
    06:00 +4°C° 0 mm 2 mps 765 mmHg 81%
    07:00 +6°C° 0 mm 2 mps 765 mmHg 75%
    08:00 +8°C° 0 mm 3 mps 765 mmHg 69%
    09:00 +9°C° 0 mm 3 mps 765 mmHg 64%
    10:00 +11°C° 0 mm 3 mps 765 mmHg 58%
    11:00 +12°C° 0 mm 3 mps 765 mmHg 53%
    12:00 +13°C° 0 mm 4 mps 765 mmHg 53%
    13:00 +13°C° 0 mm 4 mps 765 mmHg 53%
    14:00 +14°C° 0 mm 4 mps 764 mmHg 53%
    15:00 +13°C° 0 mm 4 mps 764 mmHg 57%
    16:00 +12°C° 0 mm 4 mps 764 mmHg 60%
    17:00 +11°C° 0 mm 4 mps 764 mmHg 64%
    18:00 +9°C° 0 mm 3 mps 764 mmHg 72%
    19:00 +8°C° 0 mm 3 mps 764 mmHg 79%
    20:00 +5°C° 0 mm 3 mps 764 mmHg 86%
    21:00 +5°C° 0 mm 2 mps 764 mmHg 87%
    22:00 +5°C° 0 mm 2 mps 764 mmHg 88%
    23:00 +5°C° 0 mm 2 mps 764 mmHg 89%

    3 April, Monday

    Time Temperature Precipitation Wind Pressure Humidity
    00:00 +5°C° 0 mm 2 mps 764 mmHg 90%
    01:00 +5°C° 0 mm 2 mps 764 mmHg 90%
    02:00 +5°C° 0 mm 2 mps 763 mmHg 90%
    03:00 +5°C° 0 mm 1 mps 763 mmHg 91%
    04:00 +5°C° 0 mm 1 mps 763 mmHg 91%
    05:00 +5°C° 0 mm 1 mps 763 mmHg 92%
    06:00 +7°C° 0 mm 1 mps 763 mmHg 87%
    07:00 +9°C° 0 mm 1 mps 763 mmHg 81%
    08:00 +11°C° 0 mm 1 mps 763 mmHg 76%
    09:00 +12°C° 0 mm 1 mps 763 mmHg 71%
    10:00 +14°C° 0 mm 1 mps 762 mmHg 65%
    11:00 +15°C° 0 mm 2 mps 762 mmHg 59%
    12:00 +16°C° 0 mm 2 mps 762 mmHg 58%
    13:00 +17°C° 0 mm 2 mps 762 mmHg 56%
    14:00 +17°C° 0 mm 2 mps 761 mmHg 55%
    15:00 +17°C° 0 mm 2 mps 761 mmHg 58%
    16:00 +16°C° 0 mm 2 mps 761 mmHg 62%
    17:00 +15°C° 0 mm 2 mps 760 mmHg 65%
    18:00 +13°C° 0 mm 2 mps 760 mmHg 72%
    19:00 +12°C° 0 mm 2 mps 760 mmHg 79%
    20:00 +9°C° 0 mm 2 mps 760 mmHg 86%
    21:00 +8°C° 0 mm 2 mps 760 mmHg 86%
    22:00 +8°C° 0 mm 2 mps 760 mmHg 86%
    23:00 +8°C° 0 mm 2 mps 760 mmHg 85%

    4 April, Tuesday

    Time Temperature Precipitation Wind Pressure Humidity
    00:00 +8°C° 0 mm 2 mps 759 mmHg 84%
    01:00 +9°C° 0 mm 2 mps 759 mmHg 83%
    02:00 +9°C° 0 mm 2 mps 759 mmHg 82%
    03:00 +9°C° 0 mm 2 mps 759 mmHg 82%
    04:00 +9°C° 0 mm 2 mps 759 mmHg 83%
    05:00 +10°C° 0 mm 2 mps 758 mmHg 83%
    06:00 +10°C° 0.1 mm 2 mps 759 mmHg 82%
    07:00 +12°C° 0.1 mm 2 mps 759 mmHg 80%
    08:00 +13°C° 0.1 mm 2 mps 759 mmHg 78%
    09:00 +13°C° 0 mm 3 mps 759 mmHg 72%
    10:00 +15°C° 0 mm 4 mps 759 mmHg 67%
    11:00 +17°C° 0 mm 4 mps 759 mmHg 61%
    12:00 +17°C° 0.1 mm 5 mps 759 mmHg 60%
    13:00 +17°C° 0.1 mm 5 mps 759 mmHg 59%
    14:00 +19°C° 0.1 mm 5 mps 759 mmHg 59%
    15:00 +17°C° 0.4 mm 5 mps 759 mmHg 62%
    16:00 +17°C° 0.4 mm 5 mps 759 mmHg 65%
    17:00 +16°C° 0.4 mm 5 mps 759 mmHg 68%
    18:00 +14°C° 0.2 mm 5 mps 759 mmHg 72%
    19:00 +13°C° 0.2 mm 4 mps 759 mmHg 77%
    20:00 +11°C° 0.2 mm 4 mps 760 mmHg 81%
    21:00 +11°C° 0 mm 4 mps 760 mmHg 83%
    22:00 +10°C° 0 mm 3 mps 760 mmHg 84%
    23:00 +10°C° 0 mm 3 mps 760 mmHg 86%
    Show more